FW6147 Weather Reports


time (UTC)temp
F
wind
direction
speed
knots
gust
knots
rain 1hr
in
rain 24hr
in
rain mn
in
humidity
%
barometer
mb
20260902144055 75 95 2.6 5.2 0.00 0.00 0.00 66 1023.8
20260902143552 75 116 2.6 5.2 0.00 0.00 0.00 66 1023.8
20260902143102 74 130 0.9 3.5 0.00 0.00 0.00 69 1023.8
20260902142555 73 136 1.7 3.5 0.00 0.00 0.00 70 1023.8
20260902142056 72 139 1.7 5.2 0.00 0.00 0.00 72 1023.8
20260902141601 72 142 1.7 5.2 0.00 0.00 0.00 74 1023.8
20260902141055 71 148 2.6 4.3 0.00 0.00 0.00 76 1023.8
20260902140553 70 179 1.7 3.5 0.00 0.00 0.00 76 1023.7
20260902140105 70 196 0.9 3.5 0.00 0.00 0.00 79 1023.5
20260902135552 69 196 1.7 3.5 0.00 0.00 0.00 80 1023.5
20260902135055 69 196 0.9 2.6 0.00 0.00 0.00 81 1023.4
20260902134604 68 196 0.9 2.6 0.00 0.00 0.00 82 1023.4
20260902134054 68 196 0.0 0.0 0.00 0.00 0.00 83 1023.4
20260902133555 67 0 0.0 0.0 0.00 0.00 0.00 83 1023.4
20260902133058 66 0 0.0 0.9 0.00 0.00 0.00 84 1023.4
20260902132556 66 0 0.0 0.9 0.00 0.00 0.00 83 1023.4
20260902132056 66 0 0.0 0.9 0.00 0.00 0.00 83 1023.2
20260902131601 66 0 0.0 1.7 0.00 0.00 0.00 83 1023.2
20260902131057 66 0 0.0 1.7 0.00 0.00 0.00 83 1023.1
20260902130556 66 0 0.0 0.9 0.00 0.00 0.00 82 1023.1
20260902130105 66 0 0.0 0.9 0.00 0.00 0.00 82 1023.1
20260902125555 66 0 0.0 0.9 0.00 0.00 0.00 82 1023.1
20260902125055 67 0 0.0 2.6 0.00 0.00 0.00 81 1023.1
20260902124602 67 0 0.0 2.6 0.00 0.00 0.00 81 1023.0
20260902124054 67 196 0.0 2.6 0.00 0.00 0.00 81 1022.8
20260902123558 67 0 0.9 2.6 0.00 0.00 0.00 82 1022.8
20260902123107 67 0 0.0 2.6 0.00 0.00 0.00 82 1022.8
20260902122555 67 196 0.0 2.6 0.00 0.00 0.00 82 1022.7
20260902122055 67 196 0.9 2.6 0.00 0.00 0.00 82 1022.6
20260902121559 67 196 0.9 2.6 0.00 0.00 0.00 83 1022.6
20260902121055 67 196 0.0 1.7 0.00 0.00 0.00 82 1022.6
20260902120555 67 0 0.9 1.7 0.00 0.00 0.00 82 1022.5
20260902120059 67 196 0.0 2.6 0.00 0.00 0.00 82 1022.6
20260902115555 67 0 0.9 2.6 0.00 0.00 0.00 81 1022.6
20260902115055 67 196 0.0 2.6 0.00 0.00 0.00 81 1022.5
20260902114621 67 0 0.9 2.6 0.00 0.00 0.00 81 1022.5
20260902114054 68 0 0.9 2.6 0.00 0.00 0.00 81 1022.5
20260902113554 68 196 0.0 1.7 0.00 0.00 0.00 80 1022.4
20260902113107 68 196 0.0 3.5 0.00 0.00 0.00 81 1022.4
20260902112555 67 196 0.0 3.5 0.00 0.00 0.00 80 1022.3
20260902112055 68 0 1.7 3.5 0.00 0.00 0.00 81 1022.4
20260902111601 68 0 0.0 2.6 0.00 0.00 0.00 80 1022.3
20260902111055 68 0 0.9 2.6 0.00 0.00 0.00 80 1022.4
20260902110600 68 0 0.0 0.0 0.00 0.00 0.00 80 1022.3
20260902110107 68 0 0.0 0.9 0.00 0.00 0.00 80 1022.3
20260902105557 68 0 0.0 1.7 0.00 0.00 0.00 80 1022.3
20260902105055 68 0 0.9 4.3 0.00 0.00 0.00 80 1022.3
20260902104601 68 0 0.0 4.3 0.00 0.00 0.00 80 1022.3
20260902104056 68 186 0.9 4.3 0.00 0.00 0.00 79 1022.4
20260902103553 68 0 0.0 2.6 0.00 0.00 0.00 79 1022.4
20260902103113 68 0 0.0 5.2 0.00 0.00 0.00 79 1022.4
20260902102553 68 186 0.9 5.2 0.00 0.00 0.00 79 1022.4
20260902102055 68 175 2.6 5.2 0.00 0.00 0.00 79 1022.4
20260902101604 68 164 1.7 3.5 0.00 0.00 0.00 80 1022.3
20260902101100 68 0 0.0 3.5 0.00 0.00 0.00 80 1022.5
20260902100554 68 245 0.9 3.5 0.00 0.00 0.00 79 1022.5
20260902100126 68 245 1.7 2.6 0.00 0.00 0.00 79 1022.5
20260902095551 68 0 0.9 2.6 0.00 0.00 0.00 78 1022.5
20260902095051 68 0 0.9 1.7 0.00 0.00 0.00 78 1022.4
20260902094617 68 314 0.0 2.6 0.00 0.00 0.00 77 1022.4
20260902094055 68 0 0.0 2.6 0.00 0.00 0.00 76 1022.4
20260902093556 69 314 0.0 0.9 0.00 0.00 0.00 76 1022.4
20260902093114 69 0 0.0 2.6 0.00 0.00 0.00 74 1022.5
20260902092555 69 0 0.9 4.3 0.00 0.00 0.00 73 1022.4
20260902092055 70 191 1.7 4.3 0.00 0.00 0.00 72 1022.4
20260902091601 69 176 2.6 4.3 0.00 0.00 0.00 73 1022.4
20260902091056 69 0 0.0 0.0 0.00 0.00 0.00 75 1022.5
20260902090554 69 0 0.0 0.9 0.00 0.00 0.00 75 1022.3
20260902090104 69 0 0.0 0.9 0.00 0.00 0.00 75 1022.3
20260902085555 69 0 0.0 0.9 0.00 0.00 0.00 75 1022.4
20260902085053 70 0 0.0 0.9 0.00 0.00 0.00 74 1022.4
20260902084600 70 0 0.0 5.2 0.00 0.00 0.00 73 1022.4
20260902084058 70 0 2.6 6.1 0.00 0.00 0.00 73 1022.4
20260902083555 70 174 3.5 6.1 0.00 0.00 0.00 73 1022.5
20260902083102 70 177 4.3 6.1 0.00 0.00 0.00 73 1022.4
20260902082558 69 174 4.3 6.1 0.00 0.00 0.00 74 1022.5
20260902082055 69 172 3.5 5.2 0.00 0.00 0.00 75 1022.4
20260902081606 69 0 0.0 3.5 0.00 0.00 0.00 75 1022.4
20260902081056 69 0 1.7 3.5 0.00 0.00 0.00 75 1022.5
20260902080556 69 355 0.0 3.5 0.00 0.00 0.00 75 1022.4
20260902080108 70 0 0.9 4.3 0.00 0.00 0.00 74 1022.5
20260902075555 70 355 1.7 4.3 0.00 0.00 0.00 74 1022.5
20260902075056 71 355 2.6 3.5 0.00 0.00 0.00 72 1022.5
20260902074602 71 0 0.0 0.0 0.00 0.00 0.00 69 1022.5
20260902074059 71 0 0.0 2.6 0.00 0.00 0.00 69 1022.4
20260902073555 72 0 0.0 2.6 0.00 0.00 0.00 68 1022.4
20260902073109 72 355 0.9 2.6 0.00 0.00 0.00 68 1022.5
20260902072558 73 0 0.0 1.7 0.00 0.00 0.00 67 1022.4
20260902072055 73 0 0.0 2.6 0.00 0.00 0.00 66 1022.3
20260902071606 73 0 0.0 2.6 0.00 0.00 0.00 65 1022.3
20260902071055 74 355 0.9 2.6 0.00 0.00 0.00 64 1022.3
20260902070554 74 355 1.7 2.6 0.00 0.00 0.00 64 1022.4
20260902070107 74 355 0.9 3.5 0.00 0.00 0.00 64 1022.4
20260902065558 74 355 1.7 3.5 0.00 0.00 0.00 63 1022.4
20260902065052 74 355 1.7 3.5 0.00 0.00 0.00 63 1022.4
20260902064606 74 355 0.9 3.5 0.00 0.00 0.00 62 1022.5
20260902064055 74 355 1.7 4.3 0.00 0.00 0.00 62 1022.5
20260902063555 74 356 0.9 4.3 0.00 0.00 0.00 63 1022.4
20260902063102 74 356 1.7 5.2 0.00 0.00 0.00 63 1022.4
20260902062559 73 359 2.6 5.2 0.00 0.00 0.00 64 1022.5
20260902062051 72 1 3.5 5.2 0.00 0.00 0.00 67 1022.4
20260902061638 73 322 0.9 3.5 0.00 0.00 0.00 67 1022.4
20260902061056 73 0 0.9 2.6 0.00 0.00 0.00 67 1022.5
20260902060553 73 307 0.9 4.3 0.00 0.00 0.00 64 1022.4
20260902060103 73 307 1.7 4.3 0.00 0.00 0.00 64 1022.4
20260902055552 73 307 2.6 4.3 0.00 0.00 0.00 64 1022.4
20260902055052 73 307 2.6 4.3 0.00 0.00 0.00 64 1022.3
20260902054601 73 314 1.7 3.5 0.00 0.00 0.00 64 1022.3
20260902054055 74 314 1.7 3.5 0.00 0.00 0.00 64 1022.4
20260902053551 74 316 1.7 3.5 0.00 0.00 0.00 64 1022.4
20260902053105 74 335 1.7 3.5 0.00 0.00 0.00 63 1022.4
20260902052551 74 338 0.9 3.5 0.00 0.00 0.00 64 1022.4
20260902052056 74 339 0.0 2.6 0.00 0.00 0.00 64 1022.4
20260902051604 74 0 0.0 1.7 0.00 0.00 0.00 64 1022.5
20260902051055 74 0 0.0 1.7 0.00 0.00 0.00 64 1022.5
20260902050556 74 339 0.9 1.7 0.00 0.00 0.00 63 1022.6
20260902050104 74 0 0.0 1.7 0.00 0.00 0.00 64 1022.6
20260902045554 74 0 0.0 1.7 0.00 0.00 0.00 64 1022.6
20260902045051 74 0 0.0 1.7 0.00 0.00 0.00 63 1022.6
20260902044603 74 0 0.0 1.7 0.00 0.00 0.00 63 1022.6
20260902044053 74 0 0.9 1.7 0.00 0.00 0.00 64 1022.5
20260902043554 73 0 0.0 0.0 0.00 0.00 0.00 64 1022.5
20260902043105 73 0 0.0 0.0 0.00 0.00 0.00 65 1022.5
20260902042551 73 0 0.0 0.9 0.00 0.00 0.00 65 1022.4
20260902042056 73 0 0.0 3.5 0.00 0.00 0.00 66 1022.4
20260902041622 73 0 0.0 3.5 0.00 0.00 0.00 65 1022.3
20260902041054 73 0 0.0 3.5 0.00 0.00 0.00 65 1022.3
20260902040556 73 0 0.9 3.5 0.00 0.00 0.00 65 1022.3
20260902040107 73 0 1.7 3.5 0.00 0.00 0.00 64 1022.2
20260902035553 72 343 1.7 3.5 0.00 0.00 0.00 65 1022.1
20260902035054 72 0 0.0 1.7 0.00 0.00 0.00 67 1022.0
20260902034607 72 359 0.0 0.9 0.00 0.00 0.00 68 1021.9
20260902034054 72 0 0.0 0.9 0.00 0.00 0.00 68 1021.8
20260902033551 73 0 0.0 0.9 0.00 0.00 0.00 68 1021.8
20260902033059 73 0 0.0 1.7 0.00 0.00 0.00 68 1021.7
20260902032556 73 0 0.0 1.7 0.00 0.00 0.00 68 1021.6
20260902032055 73 0 0.0 1.7 0.00 0.00 0.00 66 1021.5
20260902031616 73 0 0.0 1.7 0.00 0.00 0.00 67 1021.4
20260902031055 74 0 0.0 2.6 0.00 0.00 0.00 65 1021.3
20260902030553 74 0 0.0 2.6 0.00 0.00 0.00 64 1021.1
20260902025554 74 0 0.0 0.0 0.00 0.00 0.00 63 1021.0
20260902025054 75 0 0.0 0.0 0.00 0.00 0.00 64 1020.9
20260902024625 75 0 0.0 0.0 0.00 0.00 0.00 61 1020.7
20260902024054 75 0 0.0 0.0 0.00 0.00 0.00 61 1020.6
20260902023555 76 0 0.0 0.0 0.00 0.00 0.00 60 1020.5
20260902023107 76 0 0.0 0.0 0.00 0.00 0.00 59 1020.5
20260902022555 75 0 0.0 3.5 0.00 0.00 0.00 58 1020.6
20260902022054 76 0 0.0 3.5 0.00 0.00 0.00 60 1020.5
20260902021607 76 359 0.0 3.5 0.00 0.00 0.00 59 1020.4
20260902021054 77 0 0.0 0.0 0.00 0.00 0.00 59 1020.4
20260902020553 77 0 0.0 1.7 0.00 0.00 0.00 56 1020.4
20260902020108 77 0 0.0 1.7 0.00 0.00 0.00 56 1020.3
20260902015553 78 359 0.9 1.7 0.00 0.00 0.00 56 1020.2
20260902015053 79 359 0.0 2.6 0.00 0.00 0.00 53 1020.1
20260902014600 79 359 0.9 2.6 0.00 0.00 0.00 51 1020.0
20260902014051 79 359 0.9 1.7 0.00 0.00 0.00 49 1020.0
20260902013557 80 359 0.0 1.7 0.00 0.00 0.00 52 1020.0
20260902013059 80 359 0.0 1.7 0.00 0.00 0.00 50 1019.9
20260902012603 81 0 0.0 1.7 0.00 0.00 0.00 50 1019.9
20260902012056 81 0 0.0 1.7 0.00 0.00 0.00 49 1020.0
20260902011608 82 359 0.0 1.7 0.00 0.00 0.00 48 1019.9
20260902011054 82 0 0.0 1.7 0.00 0.00 0.00 46 1019.9
20260902010559 83 0 0.0 0.9 0.00 0.00 0.00 44 1020.0
20260902010100 83 0 0.0 0.9 0.00 0.00 0.00 43 1019.9
20260902005555 83 0 0.0 2.6 0.00 0.00 0.00 44 1019.9
20260902005056 83 0 0.0 2.6 0.00 0.00 0.00 44 1019.9
20260902004603 83 359 0.9 2.6 0.00 0.00 0.00 43 1020.0
20260902004054 83 359 0.9 2.6 0.00 0.00 0.00 43 1019.9
20260902003556 83 0 0.9 4.3 0.00 0.00 0.00 44 1019.9
20260902003104 83 359 1.7 5.2 0.00 0.00 0.00 44 1019.9
20260902002557 84 359 2.6 6.1 0.00 0.00 0.00 42 1019.9
20260902002056 85 359 3.5 6.1 0.00 0.00 0.00 40 1019.9
20260902001612 86 354 3.5 6.1 0.00 0.00 0.00 38 1020.0
20260902001055 86 321 1.7 6.1 0.00 0.00 0.00 38 1020.0
20260902000600 86 359 3.5 7.0 0.00 0.00 0.00 40 1020.0
20260902000106 86 360 2.6 7.0 0.00 0.00 0.00 41 1020.0
20260901235556 86 345 3.5 7.0 0.00 0.00 0.00 40 1020.0
20260901235056 86 341 1.7 4.3 0.00 0.00 0.00 40 1020.1
20260901234607 86 18 1.7 6.1 0.00 0.00 0.00 42 1020.1
20260901234056 85 21 3.5 6.1 0.00 0.00 0.00 40 1020.1
20260901233557 85 1 2.6 5.2 0.00 0.00 0.00 44 1020.1
20260901233110 85 352 2.6 5.2 0.00 0.00 0.00 41 1020.2
20260901232556 86 359 1.7 5.2 0.00 0.00 0.00 39 1020.2
20260901232056 86 359 3.5 5.2 0.00 0.00 0.00 38 1020.2
20260901231611 86 32 2.6 4.3 0.00 0.00 0.00 38 1020.2
20260901231102 87 32 1.7 5.2 0.00 0.00 0.00 40 1020.2
20260901230558 88 32 2.6 5.2 0.00 0.00 0.00 35 1020.1
20260901230119 88 23 0.0 4.3 0.00 0.00 0.00 36 1020.2
20260901225554 88 81 1.7 3.5 0.00 0.03 0.00 35 1020.2
20260901225056 88 57 0.9 3.5 0.00 0.03 0.00 34 1020.2
20260901224601 87 123 1.7 6.1 0.00 0.03 0.00 34 1020.4
20260901224100 87 0 2.6 7.8 0.00 0.03 0.00 34 1020.5
20260901223556 87 125 3.5 7.8 0.00 0.03 0.00 32 1020.5
20260901223115 88 109 4.3 7.8 0.00 0.03 0.00 30 1020.5
20260901222556 87 172 1.7 8.7 0.00 0.03 0.00 30 1020.6
20260901222054 87 172 4.3 8.7 0.00 0.03 0.00 31 1020.7
20260901221607 86 201 3.5 8.7 0.00 0.03 0.00 32 1020.8
20260901221054 83 190 0.9 2.6 0.00 0.03 0.00 37 1020.9
20260901220554 83 193 0.9 4.3 0.00 0.03 0.00 36 1021.0
20260901220107 83 193 0.9 4.3 0.00 0.03 0.00 40 1021.1
20260901215553 84 193 1.7 4.3 0.00 0.03 0.00 40 1021.1
20260901215053 84 188 0.9 6.1 0.00 0.03 0.00 45 1021.2
20260901214606 84 0 2.6 6.1 0.00 0.03 0.00 45 1021.2
20260901214054 84 181 0.9 3.5 0.00 0.03 0.00 44 1021.3
20260901213553 84 5 0.9 2.6 0.00 0.03 0.00 42 1021.3
20260901213138 84 5 0.9 2.6 0.00 0.03 0.00 43 1021.4
20260901212555 84 4 0.9 3.5 0.00 0.03 0.00 42 1021.5
20260901212058 84 0 0.0 3.5 0.00 0.03 0.00 41 1021.5
20260901211603 84 4 1.7 3.5 0.00 0.03 0.00 39 1021.5
20260901211057 85 4 1.7 3.5 0.00 0.03 0.00 39 1021.5
20260901210553 85 4 1.7 3.5 0.00 0.03 0.00 38 1021.5
20260901205552 85 0 0.0 3.5 0.00 0.03 0.00 39 1021.7
20260901205052 85 0 0.9 7.0 0.00 0.03 0.00 39 1021.8
20260901204559 86 4 2.6 7.0 0.00 0.03 0.00 38 1022.0
20260901204054 86 8 3.5 7.0 0.00 0.03 0.00 40 1022.0
20260901203554 85 124 1.7 5.2 0.00 0.03 0.00 39 1022.0
20260901203121 85 30 0.9 4.3 0.00 0.03 0.00 40 1022.2
20260901202554 85 351 0.9 4.3 0.00 0.03 0.00 38 1022.2
20260901202054 85 355 1.7 6.1 0.00 0.03 0.00 41 1022.3
20260901201602 84 23 2.6 6.1 0.00 0.03 0.00 41 1022.3
20260901201053 84 25 3.5 6.1 0.00 0.03 0.00 41 1022.4
20260901200554 84 12 1.7 5.2 0.00 0.03 0.00 43 1022.5
20260901200059 84 75 0.9 5.2 0.00 0.03 0.00 43 1022.6
20260901195554 84 59 2.6 6.1 0.00 0.03 0.00 45 1022.6
20260901195054 83 36 3.5 6.1 0.00 0.03 0.00 45 1022.6
20260901194607 83 46 2.6 5.2 0.00 0.03 0.00 45 1022.6
20260901194054 83 32 2.6 5.2 0.00 0.03 0.00 45 1022.7
20260901193551 83 37 2.6 5.2 0.00 0.03 0.00 46 1022.8
20260901193106 83 35 1.7 7.8 0.00 0.03 0.00 47 1022.8
20260901192554 83 61 3.5 7.8 0.00 0.03 0.00 47 1022.9
20260901192055 83 82 2.6 6.1 0.00 0.03 0.00 46 1022.9
20260901191622 83 32 3.5 6.1 0.00 0.03 0.00 45 1022.9
20260901191054 83 38 2.6 5.2 0.00 0.03 0.00 48 1022.9
20260901190551 82 103 1.7 4.3 0.00 0.03 0.00 50 1023.0
20260901185555 82 341 1.7 6.1 0.00 0.03 0.00 47 1023.1
20260901185051 82 333 2.6 7.0 0.00 0.03 0.00 47 1023.1
20260901184606 82 360 3.5 7.0 0.00 0.03 0.00 48 1023.1
20260901184055 82 23 0.9 4.3 0.00 0.03 0.00 49 1023.2
20260901183554 82 131 0.9 7.0 0.00 0.03 0.00 48 1023.2
20260901183105 81 94 3.5 7.0 0.00 0.03 0.00 49 1023.2
20260901182555 81 97 1.7 4.3 0.00 0.03 0.00 51 1023.4
20260901182055 81 124 1.7 4.3 0.00 0.03 0.00 51 1023.5
20260901181603 80 97 1.7 5.2 0.00 0.03 0.00 52 1023.6
20260901181052 80 57 2.6 5.2 0.00 0.03 0.00 52 1023.7
20260901180554 80 0 1.7 5.2 0.00 0.03 0.00 52 1023.7
20260901180105 80 58 0.9 5.2 0.00 0.03 0.00 51 1023.7
20260901175553 80 58 1.7 5.2 0.00 0.03 0.00 52 1023.7
20260901175053 80 0 2.6 4.3 0.00 0.03 0.00 52 1023.8
20260901174607 79 82 1.7 4.3 0.00 0.03 0.00 54 1023.8
20260901174051 79 74 2.6 5.2 0.00 0.03 0.00 54 1023.9
20260901173552 79 86 2.6 5.2 0.00 0.03 0.00 59 1024.0
20260901173058 78 24 2.6 5.2 0.00 0.03 0.00 61 1023.9
20260901172552 78 28 2.6 4.3 0.00 0.03 0.00 61 1024.0
20260901172054 77 42 0.9 4.3 0.00 0.03 0.00 64 1024.0
20260901171606 76 56 0.0 4.3 0.00 0.03 0.00 65 1024.1
20260901171052 75 68 0.9 4.3 0.00 0.03 0.00 66 1024.0
20260901170555 75 56 1.7 4.3 0.00 0.03 0.00 65 1023.9
20260901170105 75 49 2.6 4.3 0.00 0.03 0.00 64 1023.9
20260901165550 74 32 1.7 4.3 0.00 0.03 0.00 68 1024.0
20260901165055 74 41 2.6 4.3 0.00 0.03 0.00 69 1023.9
20260901164605 74 19 1.7 4.3 0.00 0.03 0.00 73 1024.0
20260901164054 73 23 0.0 3.5 0.00 0.03 0.00 74 1023.9
20260901163554 73 23 1.7 3.5 0.00 0.03 0.00 73 1023.8
20260901163105 73 0 0.0 3.5 0.00 0.03 0.00 75 1023.8
20260901162550 72 16 0.9 4.3 0.00 0.03 0.00 77 1023.8
20260901162052 72 19 1.7 5.2 0.00 0.03 0.00 78 1023.7
20260901161603 72 30 0.9 5.2 0.00 0.03 0.00 80 1023.6
20260901161050 71 46 0.9 5.2 0.00 0.03 0.00 81 1023.7
20260901160551 71 0 0.9 3.5 0.00 0.03 0.00 81 1023.8
20260901160118 70 53 1.7 3.5 0.00 0.03 0.00 82 1023.9
20260901155556 70 54 0.9 3.5 0.00 0.06 0.00 82 1023.8
20260901155054 70 48 0.0 3.5 0.00 0.06 0.00 83 1023.8
20260901154603 70 48 1.7 3.5 0.00 0.06 0.00 83 1023.8
20260901154054 70 51 0.9 3.5 0.00 0.06 0.00 84 1023.6
20260901153557 70 51 0.9 3.5 0.00 0.06 0.00 85 1023.5
20260901153120 70 52 0.9 4.3 0.00 0.06 0.00 86 1023.7
20260901152554 69 47 1.7 4.3 0.00 0.06 0.00 86 1023.5
20260901152055 69 47 1.7 4.3 0.00 0.06 0.00 89 1023.5
20260901151607 69 46 0.9 3.5 0.00 0.06 0.00 89 1023.5
20260901151054 68 46 0.9 4.3 0.00 0.06 0.00 90 1023.4
20260901150555 68 46 1.7 4.3 0.00 0.06 0.00 91 1023.4
20260901150126 67 44 0.9 2.6 0.00 0.06 0.00 92 1023.4
20260901145555 67 0 0.9 2.6 0.00 0.11 0.00 92 1023.4
20260901145056 66 44 0.0 2.6 0.00 0.11 0.00 92 1023.2
20260901144626 66 44 0.9 2.6 0.00 0.11 0.00 92 1023.2